Regional Weather Roundup
Issued by NWS State College, PA

Home | Current Version | Previous Version | Graphics & Text | Print | Product List | Glossary Off
Versions: 1 2 3 4 5 6 7 8 9 10 11 12 13 14 15 16 17 18 19 20 21 22 23 24 25 26 27 28 29 30 31 32 33 34 35 36 37 38 39 40 41 42 43 44 45 46 47 48 49 50

796
ASUS41 KCTP 270703
RWRCTP

REGIONAL WEATHER ROUNDUP
NATIONAL WEATHER SERVICE STATE COLLEGE PA
300 AM EDT FRI MAY 27 2016

Note: "fair" indicates few or no clouds below 12,000 feet with no
significant weather and/or obstructions to visibility.

* = STATION THAT DOES NOT REPORT PRECIPITATION /E.G. RAIN...SNOW...ETC/
    THUNDER OR FOG.

PAZ002>004-007>009-013>016-020>023-029>032-270800-
WESTERN PENNSYLVANIA

CITY           SKY/WX    TMP DP  RH WIND       PRES   REMARKS
ERIE           CLOUDY    73  65  75 S14       29.99S
MEADVILLE      CLOUDY    67  64  90 S5        30.04S
FRANKLIN*      CLOUDY    66  63  88 SW6       30.08S
NEW CASTLE     PTSUNNY   69  64  84 S3        30.05S
BEAVER COUNTY  NOT AVBL
BUTLER*        CLOUDY    68  63  83 S3        30.09S
PITTSBURGH INT CLOUDY    69  63  81 S3        30.06R
PITTSBURGH     CLOUDY    69  62  78 S8        30.06S
INDIANA*       PTCLDY    64  63  94 CALM      30.10F
LATROBE        CLOUDY    66  66 100 CALM      30.08S
WASHINGTON CO* MOCLDY    61  59  94 CALM      30.08S
$$

PAZ004>006-010>012-017>019-024>028-033>037-041-042-045-046-049>053-270800-
CENTRAL PENNSYLVANIA

CITY           SKY/WX    TMP DP  RH WIND       PRES   REMARKS
BRADFORD       PTCLDY    65  59  81 CALM      30.09F
DUBOIS         PTCLDY    66  60  81 S5        30.07F
CLEARFIELD     CLEAR     63  61  93 CALM      30.08F FOG
JOHNSTOWN      CLOUDY    67  58  72 S3        30.11F
ALTOONA        PTCLDY    65  62  90 CALM      30.09F
STATE COLLEGE  MOCLDY    65  62  92 CALM      30.07F
WILLIAMSPORT   CLOUDY    67  60  78 CALM      30.03R
SELINSGROVE    CLOUDY    68  64  87 CALM      30.04R
FT INDIANTOWN  CLOUDY    69  67  95 NE2       30.05R
CAPITAL CITY   CLOUDY    72  65  78 CALM      30.03S
HARRISBURG     CLOUDY    73  64  73 CALM      30.03R
YORK           CLOUDY    70  64  81 CALM      30.05R
$$

PAZ038>040-043-044-047-048-054-055-060>062-067>071-270800-
EASTERN PENNSYLVANIA

CITY           SKY/WX    TMP DP  RH WIND       PRES   REMARKS
SCRANTON       MOCLDY    70  60  70 S3        30.06R
MOUNT POCONO   PTCLDY    63  56  78 SW5       30.12R
ALLENTOWN      RAIN      70  66  87 SW3       30.08R FOG
QUAKERTOWN*    CLOUDY    70  66  88 CALM      30.09R
READING        CLOUDY    71  64  78 N3        30.05R
LANCASTER      CLOUDY    70  63  78 N3        30.05R
COATESVILLE    CLOUDY    70  63  78 CALM      30.08S
POTTSTOWN      CLOUDY    72  63  73 CALM      30.08R
BLUE BELL      CLOUDY    72  61  68 SW3       30.05S
DOYLESTOWN     CLOUDY    69  60  73 CALM      30.06R
WILLOW GROVE   NOT AVBL
NORTH PHILA    MOCLDY    73  62  68 S3        30.07S
PHILADELPHIA   MOCLDY    71  61  70 S5        30.06S
$$




USA.gov is the U.S. government's official web portal to all federal, state and local government web resources and services.